Current weather by "City, St" or "zip code"  
 

Current Conditions: Cleveland, TX

Fair


42.0 F

Last Updated on Oct 31 2020, 3:55 am CDT
Humidity: 99%
Wind Speed: N 0.0 mph
Barometer 30.25 in
Dewpoint: 41.7 F
Visibility: 7.00 mi
Precip: --
Heat Index: NA
Wind Chill: NA
Current conditions at:

Cleveland, TX (K6R3)

Lat: 30.3567 Lon: 95.0083

Local Radar Image active severe weather and emergency alerts image image weather storm and storm spotter reports image weather observation monitoring service image
Local
Radar
Active
Alerts
Storm Reports Obs
Monitoring

Sign-up For Email & Text Message Weather Alert Notification Services



Advertise Here

Observation History for Cleveland, TX


Time Wind
(mph)
Vis
(mi)
Weather Precip (in) Temperature (F) Relative
Humidity
Wind
Chill
(F)
Heat
Index
(F)
Pressure
Air Dwpt altimeter
(in)
sea level
(mb)
Rmks
3:55 am CDT N 0.0 7.00 Fair -- 42.0 41.7 99% NA NA 30.25 M
2:55 am CDT N 0.0 7.00 Fair -- 43.0 42.4 99% NA NA 30.25 M
1:55 am CDT N 0.0 7.00 Fair -- 43.0 42.8 100% NA NA 30.24 M
12:55 am CDT N 0.0 7.00 Fair -- 44.0 43.9 98% NA NA 30.24 M
11:55 pm CDT N 0.0 7.00 Fair -- 46.0 45.0 97% NA NA 30.24 M
10:55 pm CDT N 0.0 5.00 Fog/Mist -- 47.0 45.9 95% NA NA 30.23 M
9:55 pm CDT N 0.0 7.00 Fair -- 49.0 47.7 96% NA NA 30.23 M
8:55 pm CDT N 0.0 7.00 Fair -- 49.0 48.2 95% NA NA 30.23 M
7:55 pm CDT N 0.0 10.00 Fair -- 52.0 49.5 92% NA NA 30.22 M
6:55 pm CDT N 0.0 10.00 Fair -- 55.0 50.2 83% NA NA 30.22 M
5:55 pm CDT N 0.0 10.00 Fair -- 65.0 44.6 47% NA NA 30.21 M
4:55 pm CDT N 3.5 7.00 Fair -- 68.0 38.7 34% NA NA 30.21 M
3:55 pm CDT N 0.0 7.00 Fair -- 69.0 39.2 34% NA NA 30.21 M
2:55 pm CDT N 0.0 7.00 Fair -- 68.0 37.6 33% NA NA 30.23 M
1:55 pm CDT N 0.0 10.00 Fair -- 67.0 39.2 36% NA NA 30.25 M
12:55 pm CDT N 0.0 10.00 Fair -- 64.0 39.6 41% NA NA 30.28 M
11:55 am CDT N 4.6 7.00 Fair -- 61.0 41.9 50% 61 NA 30.30 M
10:55 am CDT N 0.0 7.00 Fair -- 57.0 43.9 61% NA NA 30.31 M
9:55 am CDT NE 3.5 5.00 Fair with Haze -- 53.0 44.6 75% NA NA 30.30 M
8:55 am CDT N 3.5 10.00 Fair -- 47.0 43.7 87% NA NA 30.28 M
7:55 am CDT N 0.0 7.00 Fair -- 43.0 42.4 97% NA NA 30.26 M
6:55 am CDT N 0.0 5.00 Fog/Mist -- 43.0 41.9 95% NA NA 30.25 M
5:55 am CDT N 0.0 7.00 Fair -- 46.0 42.3 89% NA NA 30.23 M
4:55 am CDT N 4.6 7.00 Fair -- 47.0 42.3 82% 45 NA 30.22 M

Regional Weather Observation


Conroe, Montgomery County Airport, TX (KCXO)

Fair
40.0 F

Huntsville, Huntsville Municipal Airport, TX (KUTS)

Fair
42.0 F

Houston, Hooks Memorial Airport, TX (KDWH)

Fair
44.0 F

Beaumont Municipal Airport, TX (KBMT)

Fair
48.0 F

Crockett, Houston County Airport, TX (KDKR)

NULL
NULL F

Jasper, Jasper County-Bell Field Airport, TX (KJAS)

Fair
46.0 F